Weather History for Abbotsford, BC

Change the Weather History Date:

Saturday, October 15, 2011

  Actual Average Record
Temperature  
Mean Temperature 47 °F -  
Max Temperature 59 °F 54 °F 69 °F (2002)
Min Temperature 35 °F 38 °F 32 °F (2008)
Degree Days  
Heating Degree Days 18    
Moisture  
Dew Point 41 °F    
Average Humidity 85    
Maximum Humidity 100    
Minimum Humidity 51    
Precipitation  
Precipitation 0.00 in 0.25 in - ()
Sea Level Pressure  
Sea Level Pressure 30.10 in    
Wind  
Wind Speed 1 mph ()    
Max Wind Speed 5 mph    
Max Gust Speed -    
Visibility 3.5 miles    
Events Fog    
Averages and records for this station are not official NWS values.
T = Trace of Precipitation, MM = Missing Value Source: Averaged Metar Reports

Daily Weather History Graph

Daily Weather History Graph

Search for Another Location

Airport:

Trip Planner

Search our weather history database for the weather conditions in past years. The results will help you decide how hot, cold, wet, or windy it might be!

Date:

Astronomy

Oct. 15, 2011 Rise Set
Actual Time 7:29 AM PDT 6:19 PM PDT
Civil Twilight 6:57 AM PDT 6:51 PM PDT
Nautical Twilight 6:21 AM PDT 7:28 PM PDT
Astronomical Twilight 5:44 AM PDT 8:05 PM PDT
Moon 7:58 PM PDT (10/15) 11:20 AM PDT (10/15)
Length of Visible Light 11h 53m
Length of Day
10h 49m
Waning Gibbous, 88% of the Moon is Illuminated
Oct 15
Waning Gibbous
Oct 19
Last Quarter
Oct 26
New
Nov 2
First Quarter
Nov 10
Full

Hourly Weather History & Observations

Time (PDT) Temp. Windchill Dew Point Humidity Pressure Visibility Wind Dir Wind Speed Gust Speed Precip Events Conditions
12:00 AM 41.0 °F - 39.2 °F 93% 30.05 in 10.0 mi Calm Calm - N/A Fog Patches of Fog
1:00 AM 41.0 °F - 39.2 °F 93% 30.06 in 10.0 mi NNE 2.3 mph - N/A Fog Patches of Fog
2:00 AM 39.2 °F - 37.4 °F 93% 30.06 in 10.0 mi Calm Calm - N/A Fog Patches of Fog
2:14 AM - - - N/A% - 0.8 mi Calm Calm - N/A   Clear
2:20 AM - - - N/A% - 0.5 mi Calm Calm - N/A Fog Fog
2:34 AM - - - N/A% - 0.8 mi Calm Calm - N/A   Clear
3:00 AM 37.4 °F - 37.4 °F 100% 30.08 in 0.8 mi NNE 2.3 mph - N/A   Clear
4:00 AM 37.4 °F - 35.6 °F 93% 30.09 in 0.8 mi Calm Calm - N/A   Clear
4:10 AM - - - N/A% - 0.5 mi Calm Calm - N/A Fog Fog
4:16 AM - - - N/A% - 0.8 mi Calm Calm - N/A   Clear
4:35 AM - - - N/A% - 0.6 mi Calm Calm - N/A   Clear
5:00 AM 37 °F - 36 °F 93% 30.10 in 1 mi NNE 3.5 mph - -   Mist
5:00 AM 37.4 °F 34.9 °F 35.6 °F 93% 30.10 in 0.6 mi NNE 3.5 mph - N/A   Clear
5:28 AM - - - N/A% - 0.5 mi Calm Calm - N/A Fog Fog
6:00 AM 37.4 °F 34.9 °F 37.4 °F 100% 30.11 in 0.5 mi NE 3.5 mph - N/A Fog Fog
6:13 AM - - - N/A% - 0.8 mi Calm Calm - N/A   Clear
6:45 AM - - - N/A% - 0.5 mi Calm Calm - N/A Fog Fog
7:00 AM 37.4 °F 34.9 °F 37.4 °F 100% 30.12 in 0.5 mi NNE 3.5 mph - N/A Fog Fog
7:24 AM - - - N/A% - 0.2 mi NNE 4.6 mph - N/A Fog Fog
7:48 AM - - - N/A% - 0.5 mi NE 2.3 mph - N/A Fog Fog
8:00 AM 37.4 °F 34.9 °F 37.4 °F 100% 30.12 in 0.5 mi NE 3.5 mph - N/A Fog Fog
8:16 AM - - - N/A% - 0.1 mi NNE 4.6 mph - N/A Fog Fog
9:00 AM 41.0 °F - 39.2 °F 93% 30.13 in 0.6 mi NNE 2.3 mph - N/A   Clear
9:12 AM - - - N/A% - 0.8 mi NE 3.5 mph - N/A   Clear
9:20 AM - - - N/A% - 0.5 mi ENE 3.5 mph - N/A Fog Fog
9:38 AM - - - N/A% - 1.0 mi ENE 2.3 mph - N/A   Partly Cloudy
9:50 AM - - - N/A% - 30.0 mi NNE 3.5 mph - N/A   Partly Cloudy
10:00 AM 44.6 °F 42.2 °F 42.8 °F 93% 30.15 in 30.0 mi North 4.6 mph - N/A   Partly Cloudy
11:00 AM 48 °F - 44 °F 80% 30.16 in 28 mi Calm Calm - -   Partly Cloudy
11:00 AM 48.2 °F - 44.6 °F 87% 30.16 in 30.0 mi Calm Calm - N/A   Partly Cloudy
12:00 PM 53.6 °F - 42.8 °F 67% 30.15 in 30.0 mi WNW 2.3 mph - N/A   Partly Cloudy
1:00 PM 55.4 °F - 44.6 °F 67% 30.15 in 30.0 mi South 2.3 mph - N/A   Partly Cloudy
2:00 PM 57.2 °F - 44.6 °F 63% 30.12 in 30.0 mi WNW 4.6 mph - N/A   Partly Cloudy
3:00 PM 57.2 °F - 44.6 °F 63% 30.11 in 30.0 mi NW 2.3 mph - N/A   Partly Cloudy
4:00 PM 59.0 °F - 44.6 °F 59% 30.09 in 30.0 mi North 2.3 mph - N/A   Clear
5:00 PM 58 °F - 45 °F 51% 30.08 in 28 mi West 4.6 mph - -  
5:00 PM 59.0 °F - 44.6 °F 59% 30.08 in 30.0 mi West 4.6 mph - N/A   Clear
6:00 PM 55.4 °F - 44.6 °F 67% 30.07 in 30.0 mi NW 3.5 mph - N/A   Partly Cloudy
7:00 PM 48.2 °F - 46.4 °F 93% 30.07 in 20.0 mi North 3.5 mph - N/A   Partly Cloudy
8:00 PM 46.4 °F - 44.6 °F 93% 30.07 in 15.0 mi Calm Calm - N/A   Partly Cloudy
9:00 PM 44.6 °F - 42.8 °F 93% 30.07 in 10.0 mi Calm Calm - N/A   Partly Cloudy
10:00 PM 41.0 °F - 41.0 °F 100% 30.07 in 10.0 mi Calm Calm - N/A Fog Patches of Fog
11:00 PM 41 °F - 39 °F 91% 30.08 in 10 mi Calm Calm - -  
11:00 PM 41.0 °F - 39.2 °F 93% 30.08 in 10.0 mi Calm Calm - N/A Fog Patches of Fog
11:38 PM - - - N/A% - 2.5 mi Calm Calm - N/A   Clear
11:51 PM - - - N/A% - 1.0 mi Calm Calm - N/A   Clear
11:57 PM - - - N/A% - 0.8 mi Calm Calm - N/A   Clear